Location: CNYAC Observatory
(43.2150°N, 74.9500°W)
Time: 17:48:44
(UTC-04:00)

Cosmos 1975 Rocket - Visible Passes

Search period start: 31 May 2016 00:00
Search period end: 10 June 2016 00:00
Orbit: 605 x 633 km, 82.5° (Epoch: 30 May)

Date Brightness Start Highest point End Pass type
(mag) Time Alt. Az. Time Alt. Az. Time Alt. Az.
02 Jun 6.0 03:50:31 10° NNE 03:53:22 16° ENE 03:56:12 10° ESE visible
03 Jun 5.3 04:07:08 10° NNE 04:11:02 28° ENE 04:14:53 10° SE visible
04 Jun 4.1 04:24:13 10° N 04:28:36 50° ENE 04:32:56 10° SSE visible
05 Jun 3.1 04:41:33 10° N 04:46:04 86° W 04:50:31 10° S visible
06 Jun 5.9 03:22:18 10° NNE 03:25:17 17° ENE 03:28:15 10° ESE visible
07 Jun 5.0 03:39:00 10° NNE 03:42:57 30° ENE 03:46:51 10° SE visible
08 Jun 3.9 03:56:05 10° N 04:00:30 54° E 04:04:51 10° SSE visible
09 Jun 6.2 02:38:53 10° ENE 02:39:26 10° ENE 02:40:00 10° ENE visible
09 Jun 3.1 04:13:27 10° N 04:17:57 81° W 04:22:23 10° S visible
